Simultaneous Nadir Overpasses (SNOs) Predictions

Prediction of SNOs between METOP-B and TERRA Satellite Orbit:

Table of predicted SNOs for the next 14.0 days since TLE Epoch: 7/30/2022
Index Date (METOP-B) Time (METOP-B) Lat,Lon (METOP-B) SZA (METOP-B ) Date (TERRA) Time (TERRA) Lat,Lon (TERRA) SZA (TERRA ) Distance(km) Time Diff (sec)
1 07/31/2022 23:27:07 81.15,-131.66 65.07 07/31/2022 23:27:38 81.15,-131.67 65.08 0.17 31
2 08/01/2022 00:17:46 -81.17, 36.42 114.84 08/01/2022 00:17:04 -81.17, 36.24 114.88 3.21 42
3 08/03/2022 19:01:28 81.14, -65.53 65.76 08/03/2022 19:01:50 81.14, -65.41 65.78 2.16 22
4 08/03/2022 19:52:07 -81.17, 102.57 114.14 08/03/2022 19:51:16 -81.16, 102.54 114.17 0.78 51
5 08/06/2022 14:35:48 81.15, 1.33 66.58 08/06/2022 14:36:02 81.15, 1.21 66.57 2.09 14
6 08/06/2022 15:26:28 -81.17, 169.06 113.37 08/06/2022 15:25:28 -81.17, 169.19 113.38 2.41 60
7 08/09/2022 10:10:09 81.16, 67.78 67.38 08/09/2022 10:10:14 81.16, 67.81 67.39 0.89 5
8 08/09/2022 11:00:49 -81.17,-124.48 112.56 08/09/2022 10:59:41 -81.16,-124.54 112.60 1.14 68
9 08/12/2022 04:53:51 -81.13, -34.05 111.91 08/12/2022 04:55:01 -81.13, -33.93 111.87 2.08 70



Historial Predications of SNOs between METOP-B and TERRA
